This is the latest recevied weather packets stored in our database for station/object HG8GL-6. If no packets are shown the sender has not sent any weather packets the latest 10 day(s).
| Time | Temp. | Humidity | Pressure | Rain* | Wind** | Luminosity | Snow |
|---|---|---|---|---|---|---|---|
| 1788618760 | 22.78° C | 41% | 1019 hPa | 0 mm | - | - | - |
| 1788618130 | 23.33° C | 40% | 1019 hPa | 0 mm | - | - | - |
| 1788617500 | 23.89° C | 38% | 1019 hPa | 0 mm | - | - | - |
| 1788616870 | 24.44° C | 36% | 1018 hPa | 0 mm | - | - | - |
| 1788616240 | 25° C | 37% | 1019 hPa | 0 mm | - | - | - |
| 1788615610 | 26.11° C | 34% | 1019 hPa | 0 mm | - | - | - |
| 1788614980 | 27.78° C | 30% | 1018 hPa | 0 mm | - | - | - |
| 1788614380 | 28.33° C | 30% | 1018 hPa | 0 mm | - | - | - |
| 1788613750 | 28.89° C | 29% | 1018 hPa | 0 mm | - | - | - |
| 1788613150 | 29.44° C | 29% | 1018 hPa | 0 mm | - | - | - |
| 1788612520 | 30° C | 28% | 1018 hPa | 0 mm | - | - | - |
| 1788611890 | 30.56° C | 28% | 1018 hPa | 0 mm | - | - | - |
| 1788611260 | 30.56° C | 28% | 1018 hPa | 0 mm | - | - | - |
| 1788610630 | 30.56° C | 28% | 1018 hPa | 0 mm | - | - | - |
| 1788610030 | 31.67° C | 28% | 1018 hPa | 0 mm | - | - | - |
| 1788609399 | 31.67° C | 28% | 1018 hPa | 0 mm | - | - | - |
| 1788608799 | 31.67° C | 29% | 1018 hPa | 0 mm | - | - | - |
| 1788608199 | 31.67° C | 29% | 1018 hPa | 0 mm | - | - | - |
| 1788607569 | 31.67° C | 29% | 1018 hPa | 0 mm | - | - | - |
| 1788606939 | 31.11° C | 30% | 1018 hPa | 0 mm | - | - | - |
| 1788606339 | 30.56° C | 30% | 1018 hPa | 0 mm | - | - | - |
| 1788605739 | 30.56° C | 30% | 1018 hPa | 0 mm | - | - | - |
| 1788605109 | 30.56° C | 31% | 1018 hPa | 0 mm | - | - | - |
| 1788604509 | 30° C | 31% | 1018 hPa | 0 mm | - | - | - |
| 1788603879 | 29.44° C | 34% | 1018 hPa | 0 mm | - | - | - |
* Rain latest hour (hover to see other rain measurements)
** Current wind speed in m/s (hover to see current wind gust speed)